• In India
  • List of Countries
  • For 7 days
  • Water Temperature
  • Satellite Maps
  • Weather Map
  • Weather Widgets
  • user-avatar
    Login

    Hourly Weather Eisenstadt

    Today, 25 November, Saturday

    Time Temperature Precipitation Wind Pressure Humidity
    00:00 +5°C° 0 mm 2 mps 722 mmHg 84%
    01:00 +5°C° 0 mm 2 mps 722 mmHg 85%
    02:00 +4°C° 0 mm 2 mps 721 mmHg 86%
    03:00 +4°C° 0 mm 2 mps 721 mmHg 88%
    04:00 +4°C° 0 mm 2 mps 721 mmHg 90%
    05:00 +4°C° 0 mm 2 mps 720 mmHg 91%
    06:00 +3°C° 0 mm 3 mps 720 mmHg 92%
    07:00 +3°C° 0 mm 3 mps 719 mmHg 93%
    08:00 +4°C° 0 mm 4 mps 719 mmHg 89%
    09:00 +6°C° 0 mm 5 mps 718 mmHg 84%
    10:00 +7°C° 0 mm 6 mps 717 mmHg 80%
    11:00 +8°C° 0 mm 6 mps 717 mmHg 78%
    12:00 +9°C° 0 mm 7 mps 716 mmHg 75%
    13:00 +10°C° 0 mm 7 mps 716 mmHg 73%
    14:00 +10°C° 0 mm 6 mps 716 mmHg 75%
    15:00 +9°C° 0 mm 5 mps 716 mmHg 76%
    16:00 +9°C° 0 mm 3 mps 717 mmHg 78%
    17:00 +9°C° 0.2 mm 3 mps 717 mmHg 79%
    18:00 +8°C° 0.2 mm 3 mps 718 mmHg 80%
    19:00 +8°C° 0.2 mm 3 mps 718 mmHg 81%
    20:00 +7°C° 0.8 mm 3 mps 718 mmHg 80%
    21:00 +7°C° 0.8 mm 3 mps 719 mmHg 79%
    22:00 +6°C° 0.8 mm 4 mps 719 mmHg 78%
    23:00 +5°C° 0.6 mm 4 mps 719 mmHg 78%

    Tomorrow, 26 November, Sunday

    Time Temperature Precipitation Wind Pressure Humidity
    00:00 +5°C° 0.6 mm 3 mps 720 mmHg 78%
    01:00 +5°C° 0.6 mm 3 mps 720 mmHg 78%
    02:00 +4°C° 0.6 mm 3 mps 720 mmHg 79%
    03:00 +4°C° 0.6 mm 3 mps 721 mmHg 80%
    04:00 +4°C° 0.6 mm 3 mps 721 mmHg 80%
    05:00 +3°C° 0.1 mm 4 mps 721 mmHg 80%
    06:00 +3°C° 0.1 mm 4 mps 722 mmHg 80%
    07:00 +3°C° 0.1 mm 4 mps 722 mmHg 80%
    08:00 +2°C° 0 mm 5 mps 722 mmHg 76%
    09:00 +2°C° 0 mm 6 mps 723 mmHg 72%
    10:00 +2°C° 0 mm 6 mps 723 mmHg 68%
    11:00 +2°C° 0 mm 6 mps 723 mmHg 65%
    12:00 +3°C° 0 mm 7 mps 723 mmHg 62%
    13:00 +3°C° 0 mm 7 mps 723 mmHg 59%
    14:00 +3°C° 0 mm 6 mps 724 mmHg 61%
    15:00 +2°C° 0 mm 6 mps 724 mmHg 63%
    16:00 +1°C° 0 mm 6 mps 724 mmHg 64%
    17:00 +1°C° 0 mm 6 mps 725 mmHg 66%
    18:00 +1°C° 0 mm 6 mps 725 mmHg 67%
    19:00 -1°C° 0 mm 6 mps 726 mmHg 69%
    20:00 -1°C° 0 mm 6 mps 726 mmHg 69%
    21:00 -2°C° 0 mm 6 mps 727 mmHg 69%
    22:00 -2°C° 0 mm 6 mps 727 mmHg 69%
    23:00 -3°C° 0 mm 6 mps 727 mmHg 69%

    Day after tomorrow, 27 November, Monday

    Time Temperature Precipitation Wind Pressure Humidity
    00:00 -3°C° 0 mm 6 mps 727 mmHg 70%
    01:00 -3°C° 0 mm 6 mps 727 mmHg 70%
    02:00 -3°C° 0 mm 6 mps 728 mmHg 71%
    03:00 -2°C° 0 mm 5 mps 728 mmHg 71%
    04:00 -4°C° 0 mm 5 mps 728 mmHg 71%
    05:00 -4°C° 0 mm 5 mps 728 mmHg 72%
    06:00 -4°C° 0 mm 5 mps 728 mmHg 72%
    07:00 -3°C° 0 mm 4 mps 729 mmHg 72%
    08:00 -2°C° 0 mm 5 mps 729 mmHg 68%
    09:00 -1°C° 0 mm 5 mps 729 mmHg 64%
    10:00 -1°C° 0 mm 6 mps 729 mmHg 59%
    11:00 +1°C° 0 mm 5 mps 729 mmHg 57%
    12:00 +1°C° 0 mm 5 mps 729 mmHg 55%
    13:00 +2°C° 0 mm 5 mps 728 mmHg 53%
    14:00 +1°C° 0 mm 5 mps 728 mmHg 58%
    15:00 0°C° 0 mm 4 mps 728 mmHg 62%
    16:00 0°C° 0 mm 3 mps 728 mmHg 67%
    17:00 0°C° 0 mm 3 mps 728 mmHg 69%
    18:00 -1°C° 0 mm 3 mps 728 mmHg 71%
    19:00 -1°C° 0 mm 3 mps 728 mmHg 74%
    20:00 -2°C° 0 mm 3 mps 728 mmHg 75%
    21:00 -2°C° 0 mm 2 mps 728 mmHg 76%
    22:00 -2°C° 0 mm 2 mps 728 mmHg 76%
    23:00 -2°C° 0 mm 2 mps 727 mmHg 77%

    28 November, Tuesday

    Time Temperature Precipitation Wind Pressure Humidity
    00:00 -1°C° 0 mm 1 mps 727 mmHg 77%
    01:00 -1°C° 0 mm 1 mps 727 mmHg 77%
    02:00 -1°C° 0 mm 1 mps 726 mmHg 76%
    03:00 -1°C° 0 mm 1 mps 726 mmHg 75%
    04:00 -1°C° 0 mm 1 mps 725 mmHg 74%
    05:00 -1°C° 0 mm 1 mps 725 mmHg 73%
    06:00 -1°C° 0 mm 1 mps 725 mmHg 73%
    07:00 -1°C° 0 mm 1 mps 725 mmHg 72%
    08:00 0°C° 0 mm 1 mps 724 mmHg 66%
    09:00 +1°C° 0 mm 2 mps 724 mmHg 61%
    10:00 +2°C° 0 mm 2 mps 724 mmHg 55%
    11:00 +3°C° 0 mm 2 mps 723 mmHg 53%
    12:00 +2°C° 0 mm 3 mps 722 mmHg 52%
    13:00 +3°C° 0 mm 3 mps 721 mmHg 50%
    14:00 +2°C° 0 mm 3 mps 721 mmHg 56%
    15:00 +1°C° 0 mm 3 mps 720 mmHg 61%
    16:00 0°C° 0 mm 3 mps 719 mmHg 67%
    17:00 -1°C° 0 mm 3 mps 719 mmHg 70%
    18:00 -1°C° 0 mm 3 mps 719 mmHg 72%
    19:00 -2°C° 0 mm 3 mps 719 mmHg 75%
    20:00 -2°C° 0 mm 3 mps 718 mmHg 75%
    21:00 -2°C° 0 mm 3 mps 718 mmHg 76%
    22:00 -2°C° 0 mm 3 mps 718 mmHg 76%
    23:00 -2°C° 0 mm 3 mps 717 mmHg 77%

    29 November, Wednesday

    Time Temperature Precipitation Wind Pressure Humidity
    00:00 -2°C° 0 mm 3 mps 717 mmHg 77%
    01:00 -2°C° 0 mm 3 mps 716 mmHg 78%
    02:00 -4°C° 0 mm 3 mps 716 mmHg 79%
    03:00 -4°C° 0 mm 3 mps 716 mmHg 80%
    04:00 -4°C° 0 mm 3 mps 715 mmHg 81%
    05:00 -3°C° 0 mm 2 mps 715 mmHg 80%
    06:00 -3°C° 0 mm 2 mps 715 mmHg 80%
    07:00 -3°C° 0 mm 2 mps 715 mmHg 80%
    08:00 -2°C° 0 mm 2 mps 715 mmHg 73%
    09:00 -1°C° 0 mm 2 mps 715 mmHg 66%
    10:00 +2°C° 0 mm 2 mps 715 mmHg 59%
    11:00 +2°C° 0 mm 2 mps 715 mmHg 58%
    12:00 +3°C° 0 mm 2 mps 715 mmHg 56%
    13:00 +5°C° 0 mm 1 mps 715 mmHg 54%
    14:00 +4°C° 0 mm 1 mps 715 mmHg 61%
    15:00 +3°C° 0 mm 1 mps 715 mmHg 67%
    16:00 +2°C° 0 mm 1 mps 715 mmHg 74%
    17:00 +2°C° 0.3 mm 1 mps 715 mmHg 77%
    18:00 +3°C° 0.3 mm 1 mps 714 mmHg 81%
    19:00 +2°C° 0.3 mm 2 mps 714 mmHg 84%
    20:00 +2°C° 0.8 mm 2 mps 714 mmHg 85%
    21:00 +2°C° 0.8 mm 2 mps 714 mmHg 86%
    22:00 +1°C° 0.8 mm 3 mps 713 mmHg 87%
    23:00 +2°C° 1.5 mm 2 mps 713 mmHg 88%

    30 November, Thursday

    Time Temperature Precipitation Wind Pressure Humidity
    00:00 +2°C° 1.5 mm 2 mps 712 mmHg 89%
    01:00 +2°C° 1.5 mm 2 mps 712 mmHg 89%
    02:00 +1°C° 2.8 mm 2 mps 711 mmHg 91%
    03:00 +1°C° 2.8 mm 2 mps 710 mmHg 93%
    04:00 +1°C° 2.8 mm 2 mps 710 mmHg 94%
    05:00 -1°C° 2.4 mm 3 mps 709 mmHg 95%
    06:00 -1°C° 2.4 mm 3 mps 709 mmHg 95%
    07:00 -1°C° 2.4 mm 3 mps 709 mmHg 96%
    08:00 -1°C° 0.5 mm 3 mps 709 mmHg 95%
    09:00 -2°C° 0.5 mm 4 mps 709 mmHg 94%
    10:00 -2°C° 0.5 mm 4 mps 709 mmHg 93%
    11:00 -2°C° 0.1 mm 4 mps 709 mmHg 92%
    12:00 -1°C° 0.1 mm 4 mps 710 mmHg 91%
    13:00 -1°C° 0.1 mm 4 mps 710 mmHg 91%
    14:00 -1°C° 0.1 mm 4 mps 710 mmHg 89%
    15:00 -1°C° 0.1 mm 4 mps 711 mmHg 88%
    16:00 -2°C° 0.1 mm 4 mps 712 mmHg 86%
    17:00 -2°C° 0 mm 4 mps 712 mmHg 86%
    18:00 -2°C° 0 mm 4 mps 713 mmHg 85%
    19:00 -1°C° 0 mm 3 mps 714 mmHg 85%
    20:00 -2°C° 0 mm 3 mps 714 mmHg 85%
    21:00 -2°C° 0 mm 3 mps 715 mmHg 85%
    22:00 -2°C° 0 mm 3 mps 715 mmHg 85%
    23:00 -2°C° 0 mm 3 mps 715 mmHg 85%
    Show more